Location: Alto Pass Reservoir
(37.5801°N, 89.3084°W)
Time: 04:15:16
(UTC+00:00)

Envisat - Visible Passes

Search period start: 24 May 2022 00:00
Search period end: 03 June 2022 00:00
Orbit: 764 x 765 km, 98.2° (Epoch: 22 May)

Date Brightness Start Highest point End Pass type
(mag) Time Alt. Az. Time Alt. Az. Time Alt. Az.
24 May 5.5 09:29:01 10° NE 09:32:34 19° E 09:36:05 10° SE visible
26 May 4.7 09:53:20 10° NNE 09:57:55 33° E 10:02:28 10° SSE visible
27 May 5.7 09:18:00 10° ENE 09:20:42 14° E 09:23:24 10° SE visible
29 May 5.1 09:41:52 10° NE 09:46:05 26° E 09:50:16 10° SSE visible
30 May 5.9 09:07:44 10° ENE 09:08:49 11° E 09:09:54 10° ESE visible
31 May 4.1 10:06:29 10° NNE 10:11:22 46° E 10:16:14 10° S visible
01 Jun 5.5 09:30:32 10° NE 09:34:14 20° E 09:37:55 10° SE visible
